RADUGA-1M 2

Last updated on Sept. 30, 2020, 5:50 a.m. UTC

1 36358U 10002A   20273.87247057 -.00000201  00000-0  00000-0 0  9996
2 36358   0.0443 247.1846 0002748 358.9624 162.0135  1.00272110 29179
UTC
Height (km)
Latitude
Longitude
Inclination
Orbital Period
UTC large
Height (km)
Speed (km/s)
/
Latitude / Longitude
Inclination (degrees)
Orbital Period (minutes)
Azimuth
Elevation
Range (km)
Doppler Factor
iOS Compass Heading
iOS Angle

Next 30 passes for location: Hong Kong

Rise time Rise Azimuth (degrees) Set time Set Azimuth (degrees) Duration Max altitude (degrees)

No matching passes for this satellites